Temp
91 90 90 90 90 89 89 89 88 90 90 89 89 89 89 89 89 87 86 85 84 86 88 87 87 89 91 89 89 93 91 91 87 89 91 90 89 88 86 87 79 84 76
92 90 90 91 91 91 89 90 90 88 89 89 89 88 88 89 89 87 86 89 87 86 86 84 87 92 86 88 91 87 86 88 87 81 86 86 84 84 85 81 86 87 81
91 91 91 91 92 92 91 91 90 89 88 91 89 87 87 88 89 88 87 87 88 88 88 85 86 88 87 90 86 87 89 85 84 86 87 89 86 84 79 79 80 82 82
91 91 89 90 92 93 92 91 91 90 87 88 89 87 88 88 89 89 88 87 87 88 89 89 87 87 87 85 88 85 87 87 86 87 87 82 83 80 79 76 73 76 79
89 88 89 89 90 90 90 89 90 84 86 86 85 87 87 90 92 89 89 88 87 87 89 89 89 87 81 82 88 84 85 85 88 84 80 78 78 75 73 79 77 76 75
87 87 88 87 86 84 85 85 85 85 85 86 85 85 85 91 80 76 83 89 88 85 85 88 88 83 80 74 73 73 76 81 81 81 86 80 78 80 78 79 75 69 66
85 86 86 85 85 83 82 82 82 82 82 82 82 83 83 85 75 71 74 90 89 88 84 85 89 94 83 88 74 72 71 70 70 81 80 82 82 83 81 78 76 74 75
84 85 85 84 82 82 81 81 81 80 80 78 80 83 82 82 69 68 70 86 87 87 88 88 87 88 88 87 89 87 85 86 82 84 83 84 86 86 84 81 80 79 78
84 84 84 80 79 79 79 79 79 78 78 79 81 81 80 81 67 64 68 83 85 85 87 88 87 86 77 68 84 84 85 86 82 73 75 76 71 69 73 83 79 74 71
84 84 85 84 79 78 78 77 79 78 77 78 77 80 76 80 69 64 67 83 82 86 86 86 72 76 64 61 79 81 80 83 84 87 82 77 70 75 66 79 84 74 75
85 85 84 83 82 81 79 79 76 76 76 77 77 78 78 74 67 60 62 80 83 82 87 86 77 60 59 59 60 79 79 75 77 81 81 82 81 85 85 84 83 80 77
84 80 82 78 83 81 77 77 76 75 74 77 76 75 69 68 61 60 60 61 65 80 82 81 69 58 58 57 61 64 59 62 79 81 82 83 78 79 80 77 78 82 79
81 77 80 80 81 81 79 75 79 77 79 79 78 71 67 67 67 60 60 59 58 73 81 69 60 58 57 60 58 58 58 74 76 74 78 81 83 83 77 71 63 61 60
80 79 79 80 79 80 83 83 82 83 81 78 76 75 72 73 75 80 78 75 64 69 68 76 68 64 59 64 67 70 74 75 75 73 72 71 63 63 62 60 58 58 57
81 81 80 82 79 78 77 74 78 71 68 74 74 74 74 78 71 57 57 75 76 66 69 77 76 76 74 72 70 69 67 66 64 64 63 60 57 57 56 57 57 57 56
81 82 83 85 82 82 77 72 50 51 48 47 47 58 71 53 50 47 47 49 49 50 72 76 73 73 70 68 65 63 61 60 59 59 58 57 56 55 55 57 57 56 53
83 81 83 78 84 82 81 76 73 61 49 47 47 48 48 50 48 47 46 48 48 53 78 77 75 74 72 69 64 61 60 60 61 59 58 56 55 55 55 54 54 53 52
82 66 83 84 83 82 82 76 73 74 74 71 54 55 48 48 47 46 46 53 75 67 76 79 79 78 75 73 69 65 64 65 64 62 59 58 57 55 54 53 53 53 52
82 84 85 84 83 78 81 82 81 73 73 76 75 58 55 48 49 49 49 72 71 79 76 78 80 79 79 74 73 72 68 68 66 64 64 65 65 61 57 56 55 53 53
72 67 73 84 80 76 77 79 79 78 77 74 73 75 74 69 73 73 75 78 79 77 75 77 77 77 77 78 75 73 72 69 69 70 68 67 66 63 60 60 59 58 57
73 74 71 82 83 80 77 76 79 77 76 77 77 75 53 76 74 74 75 74 75 77 78 77 77 77 74 74 73 74 74 71 71 72 70 70 70 70 69 65 64 68 74
72 76 77 82 84 80 80 78 78 80 78 77 80 71 52 77 77 74 73 73 73 74 76 78 78 78 77 76 71 72 72 72 72 71 70 71 73 71 75 75 75 74 75
80 74 82 85 84 74 78 81 81 81 82 80 81 80 77 79 80 82 82 79 74 76 76 78 78 78 76 77 79 77 75 74 75 75 75 72 75 77 75 72 71 72 73
77 77 84 86 84 83 82 81 82 71 80 84 84 83 83 84 84 83 83 84 78 75 75 76 77 80 78 77 76 82 81 82 82 82 80 80 78 73 76 76 76 76 76
78 83 86 86 85 83 84 84 85 85 83 83 83 84 85 85 84 85 85 84 81 79 77 77 77 80 80 80 82 82 58 57 76 55 82 79 78 78 78 77 77 77 75
86 88 87 87 86 84 84 84 85 86 85 86 86 86 86 86 86 85 85 84 84 81 80 82 81 81 83 84 83 63 42 46 66 47 75 80 78 78 78 77 77 78 77
MSLP
1010.46 1010.98 1011.53 1012.05 1012.50 1013.08 1013.17 1013.48 1013.89 1013.97 1014.14 1014.38 1014.70 1014.86 1014.91 1015.05 1015.34 1015.54 1015.70 1015.63 1015.99 1015.73 1015.31 1015.10 1015.20 1015.21 1014.80 1014.22 1014.10 1014.30 1014.58 1014.35 1014.32 1014.48 1014.68 1015.00 1015.36 1015.72 1016.31 1016.58 1017.72 1017.55 1018.52
1009.71 1010.33 1010.77 1011.21 1011.70 1011.97 1012.61 1012.86 1013.32 1013.64 1013.82 1014.05 1014.27 1014.51 1014.60 1014.63 1014.82 1015.08 1015.17 1014.86 1015.01 1015.40 1015.49 1015.55 1014.95 1014.71 1015.05 1015.02 1014.66 1014.58 1014.70 1015.00 1014.67 1014.52 1014.44 1014.97 1015.48 1016.10 1016.26 1016.87 1016.63 1016.51 1017.36
1009.15 1009.81 1010.15 1010.56 1010.83 1011.10 1011.37 1012.09 1012.49 1012.96 1013.32 1013.38 1013.65 1013.94 1014.18 1014.27 1014.32 1014.53 1014.74 1014.72 1014.65 1014.58 1014.71 1015.07 1015.07 1014.69 1014.65 1014.38 1014.71 1014.38 1014.15 1014.67 1014.74 1014.79 1014.31 1014.52 1015.05 1016.08 1016.61 1016.94 1016.97 1016.81 1017.31
1008.68 1009.20 1009.56 1009.99 1010.16 1010.44 1010.82 1011.14 1011.59 1012.15 1012.67 1012.93 1013.02 1013.23 1013.45 1013.73 1013.79 1013.83 1014.04 1014.26 1014.30 1014.15 1014.16 1014.19 1014.29 1014.31 1014.30 1014.63 1014.50 1014.78 1014.49 1014.49 1014.29 1014.51 1014.22 1014.13 1014.84 1015.98 1016.60 1016.91 1017.32 1017.41 1017.26
1008.47 1009.06 1009.22 1009.56 1009.92 1010.08 1010.21 1010.63 1011.10 1011.56 1012.28 1012.62 1012.73 1012.77 1012.92 1012.88 1012.93 1013.13 1013.25 1013.40 1013.68 1013.82 1013.70 1013.74 1013.89 1013.85 1013.93 1014.22 1014.31 1014.26 1014.27 1014.50 1014.08 1014.09 1014.18 1013.96 1014.68 1015.66 1016.08 1016.24 1016.61 1016.95 1017.24
1008.33 1008.71 1009.13 1009.40 1009.83 1010.31 1010.65 1010.72 1010.86 1011.52 1011.71 1012.00 1012.18 1012.43 1012.61 1012.20 1012.04 1012.44 1012.71 1012.85 1012.96 1013.30 1013.44 1013.35 1013.54 1013.54 1013.82 1014.01 1014.20 1014.23 1014.58 1014.60 1014.39 1014.04 1013.42 1013.30 1013.86 1014.41 1015.22 1015.25 1015.88 1016.64 1016.90
1008.27 1008.78 1009.17 1009.58 1009.87 1010.19 1010.62 1011.08 1011.22 1011.52 1011.79 1011.89 1011.89 1012.13 1012.08 1012.11 1011.80 1012.07 1012.37 1012.55 1012.44 1012.34 1012.73 1012.89 1012.78 1012.41 1012.77 1013.15 1013.56 1013.78 1013.95 1014.02 1014.07 1014.00 1013.85 1013.43 1013.32 1013.61 1014.04 1014.58 1014.82 1015.28 1015.11
1008.03 1008.51 1009.00 1009.45 1009.85 1010.26 1010.65 1010.90 1011.08 1011.32 1011.30 1011.44 1011.55 1011.57 1011.70 1011.82 1011.85 1011.99 1012.19 1012.41 1012.28 1012.13 1011.98 1012.07 1012.31 1012.36 1012.46 1012.50 1012.61 1012.55 1012.93 1012.86 1013.01 1013.11 1013.16 1013.07 1013.07 1013.15 1013.22 1013.60 1013.80 1014.12 1014.43
1007.83 1008.22 1008.69 1009.32 1009.86 1010.25 1010.52 1010.75 1011.02 1011.23 1011.25 1011.28 1011.34 1011.35 1011.51 1011.58 1011.66 1011.91 1012.29 1012.07 1011.86 1011.78 1011.89 1011.86 1011.96 1012.13 1012.33 1012.46 1012.49 1012.36 1012.13 1011.86 1011.13 1011.63 1011.68 1011.73 1012.17 1012.55 1012.73 1013.00 1013.15 1013.65 1013.77
1007.69 1008.12 1008.36 1008.84 1009.48 1010.06 1010.50 1010.80 1010.88 1010.99 1011.10 1011.23 1011.21 1011.17 1011.28 1011.33 1011.38 1011.68 1012.08 1011.81 1011.27 1011.04 1010.99 1011.38 1011.79 1012.07 1012.34 1012.66 1012.60 1012.53 1012.18 1011.81 1011.74 1011.42 1011.89 1012.16 1012.02 1011.81 1012.30 1012.39 1012.11 1012.47 1012.62
1007.69 1008.18 1008.48 1008.94 1009.31 1009.82 1010.30 1010.67 1011.09 1011.11 1011.15 1011.04 1011.05 1011.03 1011.18 1011.47 1011.96 1011.81 1012.07 1011.56 1011.04 1010.93 1010.43 1010.71 1012.09 1012.21 1012.67 1012.85 1012.75 1012.41 1011.95 1012.23 1011.86 1011.67 1011.31 1011.27 1011.09 1010.82 1011.08 1011.10 1011.16 1011.16 1011.31
1007.73 1008.42 1008.70 1009.37 1009.31 1009.74 1010.31 1010.65 1010.92 1011.10 1011.18 1010.93 1010.86 1011.08 1011.66 1012.06 1012.35 1012.31 1012.24 1012.24 1012.06 1011.45 1011.02 1011.13 1012.41 1012.69 1012.85 1012.91 1012.86 1012.64 1012.44 1012.43 1011.94 1011.15 1010.77 1010.36 1010.26 1010.27 1010.34 1010.36 1009.95 1009.83 1010.32
1007.82 1008.62 1008.98 1009.37 1009.60 1009.74 1010.08 1010.43 1010.53 1010.85 1010.71 1010.34 1010.72 1011.42 1011.98 1012.30 1012.43 1012.49 1012.52 1012.48 1012.43 1012.25 1011.70 1011.86 1012.09 1012.34 1012.53 1012.53 1012.28 1012.45 1012.41 1012.17 1011.55 1011.25 1010.74 1010.11 1009.66 1009.66 1010.27 1010.72 1011.29 1011.65 1011.79
1007.77 1008.42 1008.96 1009.26 1009.62 1009.80 1009.76 1010.11 1010.21 1009.92 1010.26 1010.93 1011.08 1011.25 1011.89 1011.97 1011.69 1011.43 1011.74 1012.07 1012.31 1012.20 1012.01 1011.79 1012.17 1012.46 1012.45 1012.40 1012.07 1011.61 1011.84 1011.47 1011.17 1011.08 1011.08 1010.89 1011.19 1011.13 1011.18 1011.38 1011.69 1011.98 1012.27
1007.80 1008.22 1008.72 1008.84 1009.65 1009.99 1010.51 1011.12 1011.11 1011.69 1011.87 1011.87 1011.81 1011.73 1011.83 1011.44 1012.54 1013.07 1013.16 1012.19 1012.11 1012.41 1012.09 1011.86 1011.70 1011.69 1011.72 1011.96 1012.10 1012.23 1012.37 1012.29 1012.00 1011.73 1011.66 1011.70 1011.76 1011.86 1011.99 1011.97 1012.05 1012.31 1012.55
1007.65 1008.16 1008.24 1008.26 1008.95 1009.19 1010.51 1011.77 1012.42 1012.52 1012.79 1012.69 1012.65 1012.37 1012.23 1012.76 1013.20 1013.43 1013.41 1013.25 1012.95 1012.66 1012.34 1011.70 1011.77 1011.81 1012.00 1012.33 1012.51 1012.62 1012.88 1012.86 1012.71 1012.53 1012.48 1012.41 1012.44 1012.52 1012.60 1012.60 1012.58 1012.77 1013.09
1007.29 1007.86 1008.17 1008.45 1008.47 1008.86 1009.35 1010.48 1011.45 1012.85 1012.91 1013.09 1012.90 1012.72 1012.88 1013.08 1013.25 1013.36 1013.41 1013.38 1012.84 1012.84 1011.79 1011.64 1011.74 1011.95 1012.11 1012.38 1012.76 1012.95 1013.12 1013.26 1013.18 1013.18 1013.15 1013.08 1013.20 1013.31 1013.35 1013.35 1013.42 1013.66 1013.99
1008.08 1008.48 1008.39 1008.39 1008.78 1008.89 1008.99 1009.98 1010.72 1011.02 1011.54 1012.35 1012.87 1012.90 1013.07 1013.14 1013.30 1013.37 1013.40 1013.21 1012.34 1012.04 1011.48 1011.07 1011.05 1011.22 1011.69 1012.10 1012.55 1012.86 1013.10 1013.09 1013.07 1013.40 1013.60 1013.72 1013.84 1013.86 1014.04 1014.19 1014.31 1014.51 1014.71
1007.96 1008.08 1008.05 1008.51 1009.03 1009.20 1009.17 1009.11 1009.71 1010.55 1010.79 1010.95 1011.59 1012.78 1012.75 1012.96 1013.07 1013.01 1012.90 1012.44 1011.61 1011.12 1011.17 1011.05 1010.98 1010.95 1011.06 1011.65 1012.37 1012.54 1012.79 1012.78 1013.07 1013.44 1013.60 1013.61 1013.75 1014.02 1014.43 1014.75 1014.92 1015.03 1015.04
1008.48 1008.52 1008.09 1008.15 1009.03 1009.52 1009.57 1009.25 1009.46 1009.66 1009.85 1010.33 1010.86 1010.87 1011.39 1012.13 1012.16 1012.08 1011.66 1011.12 1010.88 1011.00 1011.07 1010.89 1011.06 1011.17 1011.37 1011.46 1011.72 1012.31 1012.45 1012.82 1012.89 1012.86 1013.26 1013.65 1013.86 1014.10 1014.18 1014.37 1014.59 1014.63 1014.54
1007.96 1008.28 1007.96 1007.97 1007.98 1008.53 1009.20 1009.08 1009.09 1009.41 1009.42 1009.41 1009.76 1010.32 1011.13 1010.91 1010.93 1011.11 1011.18 1011.28 1011.13 1010.68 1010.49 1010.71 1010.81 1011.06 1011.45 1011.78 1011.82 1011.87 1012.09 1012.47 1012.64 1012.54 1012.75 1012.85 1013.17 1013.14 1013.23 1013.48 1013.57 1013.27 1012.56
1007.83 1007.37 1007.62 1007.37 1007.23 1007.95 1008.42 1008.89 1009.05 1008.74 1008.85 1008.99 1009.06 1010.27 1010.61 1010.38 1010.24 1010.26 1010.61 1010.91 1010.94 1010.79 1010.65 1010.60 1010.54 1010.67 1010.72 1010.77 1011.49 1011.75 1011.90 1012.07 1012.18 1012.21 1012.32 1012.43 1012.32 1012.24 1011.71 1011.65 1011.80 1011.94 1011.97
1006.52 1006.30 1006.12 1006.29 1006.65 1007.36 1008.10 1007.94 1008.03 1008.14 1007.89 1008.31 1008.70 1009.16 1009.59 1009.31 1008.99 1008.57 1008.80 1009.47 1010.26 1010.39 1010.45 1010.37 1010.43 1010.28 1010.41 1010.45 1010.40 1010.86 1010.96 1011.08 1011.19 1011.27 1011.19 1011.49 1011.19 1011.09 1011.40 1011.76 1011.78 1011.56 1011.61
1005.34 1005.06 1005.32 1005.42 1005.92 1006.72 1007.03 1007.19 1007.36 1007.57 1007.26 1007.03 1007.65 1007.88 1007.95 1007.74 1007.87 1007.99 1008.41 1008.42 1009.37 1009.99 1010.10 1010.10 1010.08 1009.89 1010.05 1010.01 1010.10 1009.95 1009.97 1009.85 1009.91 1010.09 1010.44 1010.33 1010.61 1011.07 1011.26 1011.11 1011.16 1011.17 1011.20
1004.68 1004.78 1004.68 1004.75 1005.37 1006.18 1005.86 1006.08 1006.07 1006.22 1006.68 1006.94 1007.02 1007.21 1006.99 1007.10 1007.27 1007.59 1007.82 1007.98 1008.65 1009.31 1009.57 1009.47 1009.54 1009.34 1009.58 1009.35 1009.18 1009.29 1009.98 1009.76 1009.79 1010.40 1010.03 1010.37 1010.32 1010.29 1010.45 1010.66 1010.64 1010.60 1010.75
1003.53 1003.27 1003.90 1004.52 1004.87 1005.35 1005.35 1005.54 1005.41 1005.34 1005.44 1005.63 1005.85 1006.16 1006.26 1006.42 1006.64 1006.96 1007.32 1007.57 1007.69 1008.17 1008.57 1008.63 1008.64 1008.64 1008.54 1008.59 1008.78 1009.08 1009.77 1010.05 1010.02 1010.41 1010.36 1009.96 1010.06 1010.02 1010.02 1010.20 1010.13 1010.06 1010.14
Wind_Speed
17 16 16 15 15 14 13 11 11 11 9 9 9 10 9 9 8 8 8 8 7 6 9 5 7 7 7 6 1 2 5 8 5 3 3 5 2 3 7 6 8 8 7
15 13 16 15 15 16 14 14 13 12 12 10 11 11 10 10 9 9 10 10 5 9 9 9 9 8 8 7 6 7 4 6 8 3 3 6 6 6 6 6 7 7 8
14 16 15 16 16 15 15 15 13 12 12 14 12 11 11 12 10 10 10 11 10 10 10 9 10 10 7 8 6 4 6 7 7 7 8 6 6 6 7 3 3 4 4
15 15 14 15 16 15 13 12 14 12 12 13 13 12 13 12 13 12 12 12 12 11 10 10 10 11 8 9 9 7 8 7 6 7 9 5 7 8 6 6 4 4 6
12 14 12 12 12 11 11 12 12 9 12 12 12 13 13 13 12 13 12 12 12 13 11 11 11 11 8 8 9 10 7 7 8 7 7 3 4 4 8 7 7 7 8
11 12 10 10 9 9 9 9 9 10 11 11 12 12 13 13 13 12 11 12 12 11 11 11 11 8 11 9 9 10 8 7 10 9 8 5 8 7 8 9 7 4 4
12 11 10 10 10 9 8 9 10 11 11 12 12 13 14 14 9 9 11 14 12 11 12 11 12 12 14 13 15 14 13 11 12 10 11 11 8 6 8 9 10 11 10
12 11 10 9 8 7 8 10 9 8 9 7 9 11 11 10 7 9 12 12 12 13 11 11 11 11 11 8 12 13 14 13 14 12 13 13 11 10 8 10 10 11 7
11 11 10 7 7 7 7 6 6 6 6 8 9 10 11 12 14 10 10 11 13 12 12 12 12 12 11 9 11 13 12 11 10 19 17 12 10 6 6 7 8 7 6
10 9 9 10 8 6 4 4 5 5 7 7 8 11 10 11 10 11 11 8 10 10 12 11 11 12 7 1 7 11 13 13 12 16 7 9 8 10 9 10 10 10 10
9 8 7 5 5 5 5 4 2 4 4 6 7 8 8 5 5 4 5 8 8 8 9 3 3 9 7 4 4 10 12 5 11 11 10 9 10 12 11 13 14 11 12
12 6 7 7 7 8 5 3 3 3 6 6 5 3 4 5 4 6 5 7 7 7 8 5 7 5 6 6 6 11 8 7 10 11 12 12 10 11 11 8 10 13 9
12 9 10 7 5 4 5 4 6 7 6 5 2 3 3 2 3 5 5 4 4 5 6 6 9 10 10 9 12 12 7 8 10 9 12 12 11 9 4 3 5 7 8
12 11 9 8 6 5 5 2 5 4 4 4 3 3 3 3 5 6 6 6 7 8 8 6 2 5 8 9 9 5 5 7 9 8 8 6 3 2 0 1 2 1 2
10 9 10 8 7 5 5 6 3 6 6 1 1 2 3 4 6 6 6 5 5 6 3 1 2 3 4 4 4 5 6 6 5 4 3 2 3 2 2 2 2 2 2
10 8 7 7 7 7 6 6 8 9 5 4 5 5 7 10 6 5 6 6 8 7 4 3 3 2 4 4 5 5 4 5 4 3 3 3 3 3 3 3 3 4 6
7 6 5 4 4 5 6 5 6 4 2 3 6 8 9 8 3 5 5 7 11 4 4 4 3 3 4 4 4 3 4 4 4 4 4 4 4 5 5 5 6 6 6
6 6 3 3 4 4 4 8 3 5 6 7 5 3 4 1 3 7 6 6 5 5 5 0 2 2 3 3 3 3 2 3 5 5 5 5 5 5 5 5 5 6 5
5 5 3 4 3 2 4 5 8 6 5 3 7 6 8 7 7 9 8 8 6 3 1 3 1 1 3 6 3 3 2 4 5 6 5 5 6 6 6 5 5 6 6
5 3 3 4 6 5 5 5 7 4 5 7 6 4 9 7 8 6 6 6 6 3 3 3 3 2 1 0 4 4 5 4 3 6 6 5 5 6 5 6 4 5 5
5 7 6 7 6 7 8 6 5 6 7 6 6 4 7 5 3 3 5 5 6 6 5 5 5 4 3 3 3 3 4 4 4 4 6 7 7 7 8 8 9 11 8
9 10 9 9 6 8 9 8 8 8 5 4 5 6 9 6 7 5 6 6 6 5 4 5 5 4 4 6 6 5 5 6 5 4 5 7 7 9 9 8 8 8 5
12 8 11 8 6 7 6 7 6 8 6 8 5 8 9 7 9 9 8 8 6 6 5 6 6 7 4 3 4 6 7 7 7 8 6 7 10 6 3 2 5 5 4
13 5 8 8 8 9 9 8 9 4 5 4 3 4 5 5 5 5 4 4 5 5 6 7 7 9 5 6 7 8 7 7 7 7 7 7 4 6 8 8 8 10 9
7 13 12 7 8 7 7 8 9 9 9 6 6 6 6 5 4 4 5 5 6 6 8 6 6 10 12 14 10 9 5 8 6 3 6 9 10 9 7 7 8 9 8
16 9 7 9 9 9 9 9 8 6 7 8 7 7 7 5 5 5 4 4 5 10 11 9 11 16 13 8 11 4 10 8 8 5 8 8 9 8 8 9 12 8 9
Wind_Direction
205 195 205 204 204 210 220 212 224 230 235 215 220 234 230 223 228 225 239 277 253 267 288 224 228 271 280 300 319 200 276 278 256 285 174 122 148 201 139 156 163 186 148
204 202 198 204 208 201 212 213 213 220 222 225 224 228 235 233 226 225 229 251 246 236 245 273 247 241 207 249 274 285 179 285 291 258 152 160 172 201 166 184 195 204 131
199 204 209 206 206 224 201 214 210 215 222 228 215 225 233 237 232 223 230 234 243 241 241 224 250 250 245 271 293 291 229 211 211 247 268 212 155 179 167 200 241 80 124
195 208 204 212 210 212 220 214 214 213 221 230 234 225 219 231 238 229 221 225 239 235 236 242 234 247 238 243 243 262 267 273 262 242 252 169 173 169 192 196 202 216 216
189 207 203 205 217 219 220 210 215 217 221 227 231 238 239 231 230 227 229 228 222 239 244 225 235 254 246 241 254 232 265 239 253 215 240 251 168 158 198 207 220 201 218
199 202 206 208 221 222 238 246 242 248 245 225 228 230 236 243 224 218 230 226 232 223 242 242 250 251 231 230 238 265 272 273 265 287 275 228 188 207 187 209 195 178 221
191 202 202 202 207 211 216 231 226 231 235 236 238 232 228 242 247 203 203 233 246 239 220 230 239 244 207 224 220 230 247 242 236 260 267 274 293 226 208 213 194 206 228
189 195 196 203 213 206 211 216 221 237 244 249 255 253 251 247 258 203 190 229 243 248 257 242 240 258 271 260 234 224 220 233 226 230 235 252 262 264 224 217 218 217 232
187 191 189 183 199 207 223 228 242 246 255 258 260 263 256 255 248 226 215 231 235 238 247 250 254 254 256 262 264 267 272 266 241 212 219 216 199 227 257 228 216 204 202
183 185 185 188 185 193 198 235 256 250 242 257 248 254 259 264 256 216 215 237 246 248 220 228 251 263 306 36 251 257 261 260 268 276 228 245 234 231 215 236 233 218 218
164 175 173 172 171 192 189 182 227 262 290 267 265 277 274 315 65 88 238 248 257 252 257 239 82 61 59 29 307 270 262 316 284 278 278 264 254 244 234 219 232 241 228
155 151 171 158 199 167 155 185 217 254 248 259 272 243 59 80 75 81 64 14 359 270 273 270 133 53 337 312 299 277 293 298 269 261 257 256 247 252 250 262 236 226 243
149 168 165 181 210 168 218 174 233 201 252 248 219 119 129 147 168 168 166 185 227 259 271 2 340 331 304 273 246 275 262 257 258 261 265 267 275 282 320 63 47 65 56
160 172 156 185 183 192 208 210 252 252 174 260 231 188 163 201 214 209 198 196 200 222 212 228 308 304 275 270 296 241 272 287 291 269 274 295 344 347 20 57 91 99 49
165 168 172 172 205 152 26 14 5 46 1 201 199 209 245 207 65 19 344 348 355 50 305 7 341 338 334 324 325 339 341 338 330 338 343 357 19 32 22 40 84 61 92
163 176 186 170 179 181 145 125 55 56 40 47 48 5 101 73 56 352 314 304 290 287 202 123 89 42 30 358 351 352 11 7 17 29 47 55 57 55 57 47 76 86 108
154 132 158 257 192 177 177 171 153 121 48 1 360 53 56 89 42 336 309 306 273 249 220 99 95 67 40 43 36 28 25 26 41 54 62 62 76 77 66 66 75 92 80
112 52 175 228 190 187 222 155 200 191 178 165 208 225 143 107 291 291 303 304 256 218 286 206 138 106 97 81 72 70 73 55 60 66 74 76 62 69 64 62 62 81 85
175 176 220 146 205 202 225 228 180 195 186 201 149 208 193 223 247 276 280 256 220 245 211 259 290 316 118 135 121 92 50 91 119 124 127 124 116 109 105 107 121 137 148
201 255 251 196 144 180 237 225 227 214 197 188 205 216 155 181 212 221 234 269 286 266 242 251 233 249 118 270 131 154 144 127 154 135 137 134 135 140 147 160 172 178 221
199 203 227 239 190 162 215 226 216 203 218 205 214 154 86 216 236 259 262 256 264 272 243 225 222 211 188 223 212 213 175 162 190 171 171 173 170 193 189 192 194 217 218
223 189 188 222 194 163 205 185 223 220 203 238 226 151 158 232 249 229 222 237 252 275 256 245 247 215 242 184 170 210 213 206 229 220 203 199 216 234 220 207 207 217 199
224 176 210 198 199 151 191 226 212 239 203 197 217 196 194 218 227 229 200 195 201 229 242 239 230 247 193 212 210 212 208 216 210 214 215 221 223 216 198 273 294 314 289
236 179 245 198 191 183 205 197 215 233 290 194 209 217 240 225 232 239 257 238 158 222 215 226 236 252 256 218 200 220 226 233 217 224 246 266 230 212 242 220 217 229 223
188 210 212 205 191 215 202 230 199 184 182 213 207 224 235 224 236 247 244 232 168 218 229 223 217 225 228 238 253 258 101 140 219 10 259 233 246 238 229 247 234 238 225
233 192 194 202 199 184 238 185 244 199 205 214 207 210 223 227 228 219 229 237 230 190 200 205 214 224 231 238 240 220 145 183 192 214 265 257 234 236 235 222 251 246 236